Regional Weather Roundup
Issued by NWS Newport/Morehead, NC

Current Version | Previous Version | Text Only | Print | Product List | Glossary Off
Versions: 1 2 3 4 5 6 7 8 9 10 11 12 13 14 15 16 17 18 19 20 21 22 23 24 25 26 27 28 29 30 31 32 33 34 35 36 37 38 39 40 41 42 43 44 45 46 47 48 49 50
000 ASUS42 KMHX 290225 RWRMHX WEATHER ROUNDUP FOR EASTERN NORTH CAROLINA NATIONAL WEATHER SERVICE NEWPORT/MOREHEAD CITY NC 1000 PM EDT THU APR 28 2016 NOTE: "FAIR" INDICATES FEW OR NO CLOUDS BELOW 12,000 FEET WITH NO SIGNIFICANT WEATHER AND/OR OBSTRUCTIONS TO VISIBILITY NCZ015>017-031-032-045>047-102-103-290300- NORTH COAST CITY SKY/WX TMP DP RH WIND PRES REMARKS EDENTON LGT RAIN 67 67 100 CALM 29.90S ELIZABETH CITY FOG 59 58 96 NE12 29.90S VSB 1/2 KITTY HAWK CLOUDY 59 58 97 N3 29.89F FOG MANTEO NOT AVBL $$ NCZ045>047-081-094-103-104-290300- CENTRAL COAST CITY SKY/WX TMP DP RH WIND PRES REMARKS FRISCO CLOUDY 70 67 90 SW7 29.92R SWANQUARTER NOT AVBL $$ NCZ095-097-098-100-101-290300- SOUTHERN COAST CITY SKY/WX TMP DP RH WIND PRES REMARKS BEAUFORT CLOUDY 70 67 90 SW10 29.91S CEDAR ISLAND NOT AVBL JACKSONVILLE CLOUDY 71 64 78 S9 29.88S PINEY ISLAND NOT AVBL WILMINGTON CLEAR 72 63 73 SW10 29.90F $$ NCZ011>013-027>030-043-044-078>080-089-090>093-098-290300- COASTAL PLAIN CITY SKY/WX TMP DP RH WIND PRES REMARKS AHOSKIE CLOUDY 63 62 96 N9 29.91R FOG CLINTON PTCLDY 74 67 79 SW5 29.90R ELIZABETHTOWN CLEAR 72 65 77 S8 29.89R GOLDSBORO NOT AVBL GREENVILLE RAIN 70 68 94 W20G35 29.94R HAVELOCK CLOUDY 71 66 84 SW13 29.90F KENANSVILLE PTCLDY 73 64 73 CALM 29.89R KINSTON MOCLDY 73 64 73 S7 29.87F NEW BERN CLOUDY 73 64 73 SW13 29.88F RICHLANDS PTCLDY 72 65 78 S9 29.88F ROCKY MOUNT CLOUDY 64 63 96 SE6 29.89S WASHINGTON LGT RAIN 73 65 74 S3 29.88R WHITEVILLE CLEAR 71 65 81 S8 29.90S $$ AMZ130-135-150-152-154-156-158-170-250-252-270-ANZ085-086-088-633-658-670-290300- MARINE OBSERVATIONS STATION/POSITION TIME TEMP WIND PRES WAVE SWELL AIR SEA DIR/SP/G HT/PER HT/PER (UTC) (F) (DEG/KT/KT) (MB) (FT/S) (FT/S) CHESAPEAKE LIGHT 0200 54 60/ 15/ 16 1013.7 64 E VA BEACH 0050 55 53 40/ 6/ 8 1012.4 3/ 6 3/ 6 DUCK 0200 67 1012.3 2 E DUCK 0111 58 N/A 3/ 5 OREGON INLET 0200 70 1012.1 13E OREGON INLT 0200 60 N/A 3/ 6 3/ 6 HATTERAS CG 0200 70 1012.7 DIAMOND BUOY 0050 73 72 220/ 14/ 17 1012.6 4/ 6 2/10 CAPE LOOKOUT 0200 69 200/ 6/ 7 1012.9 BEAUFORT LAB 0200 68 1011.9 30 SE NEW RVR IN 0125 67 N/A 4/ 6 27 SE WRIGHTSVLE 0208 71 69 210/ 10/ 14 1016.1 5 SE WRIGHTSVLE 0208 69 67 220/ 12/ 16 1013.3 225 S CAPE HAT 0050 71 71 170/ 10/ 12 1016.6 2/10 2/10 41 SE CHARLESTON 0050 73 71 200/ 14/ 16 1013.1 3/ 5 2/ 9 $$

USA.gov is the U.S. government's official web portal to all federal, state and local government web resources and services.